GW0581 Weather Reports


Display with metric or nautical units.
time (UTC)temp
F
wind
direction
speed
MPH
gust
MPH
rain 1hr
in
rain 24hr
in
rain mn
in
humidity
%
barometer
mb
20260505061518 59 192 2.0 8.0 0.00 0.00 0.00 79 1011.8
20260505060519 59 194 4.0 9.0 0.00 0.00 0.00 79 1011.7
20260505055538 60 190 4.0 10.0 0.00 0.00 0.00 78 1011.7
20260505054539 60 181 5.0 10.0 0.00 0.00 0.00 77 1011.7
20260505053539 61 202 3.0 10.0 0.00 0.00 0.00 76 1011.6
20260505052520 61 201 3.0 10.0 0.00 0.00 0.00 75 1011.5
20260505051519 62 209 4.0 8.0 0.00 0.00 0.00 74 1011.4
20260505050517 63 227 3.0 8.0 0.00 0.00 0.00 72 1011.2
20260505041539 67 208 3.0 7.0 0.00 0.00 0.00 66 1010.6
20260505040518 67 188 2.0 9.0 0.00 0.00 0.00 65 1010.5
20260505035519 68 253 1.0 4.0 0.00 0.00 0.00 64 1010.3
20260505034517 69 279 3.0 9.0 0.00 0.00 0.00 63 1010.0
20260505033519 69 277 3.0 10.0 0.00 0.00 0.00 61 1009.9
20260505032539 70 281 2.0 9.0 0.00 0.00 0.00 60 1009.8
20260505031538 71 255 4.0 9.0 0.00 0.00 0.00 58 1009.6
20260505030537 71 247 3.0 9.0 0.00 0.00 0.00 56 1009.5
20260505025518 72 238 3.0 8.0 0.00 0.00 0.00 55 1009.5
20260505024519 73 222 3.0 8.0 0.00 0.00 0.00 55 1009.4
20260505023517 73 238 3.0 9.0 0.00 0.00 0.00 55 1009.3
20260505022518 74 226 3.0 8.0 0.00 0.00 0.00 54 1009.4
20260505021519 74 242 3.0 7.0 0.00 0.00 0.00 54 1009.4
20260505020518 75 224 4.0 10.0 0.00 0.00 0.00 53 1009.4
20260505015518 75 188 2.0 7.0 0.00 0.00 0.00 53 1009.3
20260505014519 75 200 4.0 9.0 0.00 0.00 0.00 52 1009.3
20260505013518 76 213 3.0 7.0 0.00 0.00 0.00 51 1009.3
20260505012519 77 252 2.0 7.0 0.00 0.00 0.00 49 1009.4
20260505011518 76 282 2.0 9.0 0.00 0.00 0.00 49 1009.4
20260505010517 77 277 2.0 7.0 0.00 0.00 0.00 46 1009.4
20260505005537 77 278 1.0 4.0 0.00 0.00 0.00 45 1009.4
20260505004519 79 281 2.0 7.0 0.00 0.00 0.00 42 1009.5
20260505003518 77 228 3.0 7.0 0.00 0.00 0.00 42 1009.6
20260505002539 78 225 4.0 10.0 0.00 0.00 0.00 42 1009.5
20260505001538 78 271 2.0 7.0 0.00 0.00 0.00 42 1009.6
20260505000518 79 273 3.0 10.0 0.00 0.00 0.00 42 1009.6
20260504235517 79 190 2.0 7.0 0.00 0.00 0.00 40 1009.6
20260504234518 79 160 2.0 6.0 0.00 0.00 0.00 38 1009.7
20260504233538 80 202 2.0 10.0 0.00 0.00 0.00 38 1009.8
20260504232518 79 287 3.0 8.0 0.00 0.00 0.00 40 1009.7
20260504231519 79 254 3.0 11.0 0.00 0.00 0.00 38 1009.7
20260504230518 79 283 4.0 10.0 0.00 0.00 0.00 37 1009.7
20260504225519 79 290 4.0 11.0 0.00 0.00 0.00 37 1009.9
20260504224518 79 252 3.0 11.0 0.00 0.00 0.00 38 1010.1
20260504223519 79 302 4.0 9.0 0.00 0.00 0.00 38 1010.2
20260504222517 79 212 3.0 8.0 0.00 0.00 0.00 37 1010.3
20260504221518 79 254 1.0 7.0 0.00 0.00 0.00 37 1010.5
20260504220518 79 280 3.0 9.0 0.00 0.00 0.00 39 1010.5
20260504215517 79 291 4.0 10.0 0.00 0.00 0.00 39 1010.6
20260504214518 79 278 3.0 10.0 0.00 0.00 0.00 42 1010.6
20260504213518 79 288 3.0 11.0 0.00 0.00 0.00 42 1010.6
20260504212518 79 206 2.0 7.0 0.00 0.00 0.00 43 1010.7
20260504211517 78 247 4.0 10.0 0.00 0.00 0.00 44 1010.7
20260504210518 78 275 2.0 8.0 0.00 0.00 0.00 45 1010.8
20260504205517 78 274 2.0 10.0 0.00 0.00 0.00 46 1010.8
20260504204518 78 302 3.0 8.0 0.00 0.00 0.00 46 1010.8
20260504203519 78 244 3.0 8.0 0.00 0.00 0.00 46 1010.9
20260504202518 78 263 2.0 8.0 0.00 0.00 0.00 48 1010.8
20260504201520 77 289 3.0 9.0 0.00 0.00 0.00 47 1010.8
20260504200538 77 172 1.0 4.0 0.00 0.00 0.00 45 1010.9
20260504195539 77 202 3.0 8.0 0.00 0.00 0.00 44 1010.8
20260504194519 77 279 3.0 9.0 0.00 0.00 0.00 46 1010.9
20260504193519 76 177 3.0 7.0 0.00 0.00 0.00 46 1011.0
20260504192518 75 140 2.0 4.0 0.00 0.00 0.00 52 1011.0
20260504191519 75 141 3.0 6.0 0.00 0.00 0.00 50 1011.1
20260504190517 75 96 1.0 8.0 0.00 0.00 0.00 48 1011.2
20260504185519 75 136 1.0 6.0 0.00 0.00 0.00 49 1011.2
20260504184518 74 167 3.0 8.0 0.00 0.00 0.00 51 1011.2
20260504183538 74 119 3.0 8.0 0.00 0.00 0.00 51 1011.3
20260504182517 74 170 1.0 7.0 0.00 0.00 0.00 52 1011.3
20260504181518 73 204 3.0 6.0 0.00 0.00 0.00 52 1011.3
20260504180519 73 206 2.0 6.0 0.00 0.00 0.00 52 1011.3
20260504175518 72 273 3.0 7.0 0.00 0.00 0.00 52 1011.3
20260504174519 72 284 3.0 7.0 0.00 0.00 0.00 53 1011.4
20260504173559 71 55 3.0 8.0 0.00 0.00 0.00 55 1011.3
20260504172519 71 74 1.0 6.0 0.00 0.00 0.00 59 1011.3
20260504171518 70 0.0 0.0 0.00 0.00 0.00 61 1011.3
20260504170519 69 74 1.0 6.0 0.00 0.00 0.00 63 1011.2
20260504150517 59 0.0 0.0 0.00 0.00 0.00 83 1010.6
20260504140538 56 0.0 0.0 0.00 0.00 0.00 88 1010.3
20260504130520 55 0.0 0.0 0.00 0.00 0.00 90 1009.8
20260504110517 56 0.0 0.0 0.00 0.00 0.00 80 1009.8
20260504100519 57 0.0 0.0 0.00 0.00 0.00 77 1009.7
20260504081540 60 0.0 0.0 0.00 0.00 0.00 66 1009.5
20260504080516 61 0.0 0.0 0.00 0.00 0.00 66 1009.6